Regional Weather Roundup
Issued by NWS Albany, NY

Home | Current Version | Previous Version | Text Only | Print | Product List | Glossary On
Versions: 1 2 3 4 5 6 7 8 9 10 11 12 13 14 15 16 17 18 19 20 21 22 23 24 25 26 27
000
ASUS41 KALY 202010
RWRALY

NEW YORK STATE HOURLY WEATHER ROUNDUP
NATIONAL WEATHER SERVICE ALBANY NY
400 PM EDT FRI OCT 20 2017

NOTE: "FAIR" INDICATES FEW OR NO CLOUDS BELOW 12,000 FEET WITH NO
SIGNIFICANT WEATHER AND/OR NO OBSTRUCTIONS TO VISIBILITY.

NYZ032-033-038>043-046>054-057>066-NYZ062>081-082-084-202100-
EAST


CITY           SKY/WX    TMP DP  RH WIND       PRES   REMARKS
ALBANY         MOSUNNY   70  36  28 W10       30.11S
GLENS FALLS    SUNNY     70  31  23 NW9       30.09S
POUGHKEEPSIE   SUNNY     73  36  25 NW8       30.09R
NEWBURGH       SUNNY     73  41  31 NW6       30.11S
MONTGOMERY     SUNNY     73  37  27 N12G17    30.10R
WHITE PLAINS   SUNNY     72  33  24 W10       30.09F
ISLIP          SUNNY     72  34  24 NW12      30.08S
NEW YORK CITY  MOSUNNY   73  36  25 NW15G22   30.09S
CENTRAL PARK   SUNNY     73  29  19 VRB5      30.12S
$$

NYZ005>009-017-018-044>046-055-056-202100-
CENTRAL


CITY           SKY/WX    TMP DP  RH WIND       PRES   REMARKS
FULTON         SUNNY     65  35  33 W9        30.21S
SYRACUSE       MOSUNNY   66  34  30 W9        30.19S
ROME           SUNNY     67  39  35 W15       30.17S
ELMIRA         SUNNY     69  37  30 SE7       30.20F
BINGHAMTON     SUNNY     64  33  31 NW10      30.21S
MONTICELLO     SUNNY     67  32  27 NW12G22   30.17R
$$

NYZ026>034-041>043-087-202100-
NORTH


CITY           SKY/WX    TMP DP  RH WIND       PRES   REMARKS
WATERTOWN      SUNNY     60  44  55 W8        30.19S
FORT DRUM      NOT AVBL
OGDENSBURG     FAIR      67  41  38 SW10      30.14S
MASSENA        SUNNY     66  37  34 SW14G20   30.13S
SARANAC LAKE   SUNNY     62  31  31 NW9       30.13R
PLATTSBURGH    SUNNY     68  30  24 NW9       30.08S
$$

NYZ001>004-010>016-019>021-085-202100-
WEST


CITY           SKY/WX    TMP DP  RH WIND       PRES   REMARKS
NIAGARA FALLS  SUNNY     68  39  34 SW14      30.21S
BUFFALO        MOSUNNY   65  43  44 SW8       30.21F
DUNKIRK        SUNNY     65  48  54 W7        30.23S
JAMESTOWN      SUNNY     66  34  30 CALM      30.25F
WELLSVILLE     SUNNY     69  32  25 NE3       30.25F
ROCHESTER      MOSUNNY   68  37  32 SW6       30.20F
PENN YAN       SUNNY     68  33  27 NW5       30.22F
$$

             KEY
       WCI = WIND CHILL INDEX
       VSB = VISIBILITY
       HX  = HEAT INDEX
$$




USA.gov is the U.S. government's official web portal to all federal, state and local government web resources and services.